[[{"header":{"parameterUnit":"m.s-1","parameterCategory":2,"la1":30.2991,"la2":30.254,"lo1":-89.0895,"lo2":-89.0444,"dy":0.0017,"dx":0.0017,"nx":28,"ny":28,"refTime":"2024-02-02T09:00:00:Z","depth":"0","parameterNumber":2,"parameterNumberName":"U-component_of_CURRENTS"},"data":[0,0,0,0,0,0,0,0,0,0,0,0,0,0,0,0,0,0,0,0,0,0,0,0,0,0,0,0,0,0,0,0,0,0,0,0,0,0,0,0,0,0,0,0,0,0,0,0,0,0,0,0,0,0,0,0,0,0,-0.0445,-0.0446,0,-0.0537,-0.0538,-0.054,-0.0628,-0.0629,-0.063,-0.0631,-0.0792,-0.0795,-0.0799,0,0,0,0,0,0,0,0,0,0,0,0,0,-0.033,-0.0332,-0.0445,-0.0446,-0.0447,-0.0537,-0.0538,-0.054,-0.0628,-0.0629,-0.063,-0.0631,-0.0791,-0.0795,-0.0799,0,0,0,0,0,0,0,0,0,0,0,0,0,-0.0399,-0.0332,-0.0445,-0.0499,-0.0505,-0.0537,-0.0538,-0.054,-0.0628,-0.0629,-0.063,-0.0631,-0.0789,-0.0794,-0.08,-0.0806,0,0,-0.0816,-0.0818,0,0,0,0,0,0,0,0,-0.0395,-0.0404,-0.049,-0.0496,-0.0502,-0.057,-0.0557,-0.0632,-0.0627,-0.0584,-0.0631,-0.0632,-0.0721,-0.0732,-0.075,-0.0813,-0.082,-0.0816,-0.0819,-0.0821,-0.0823,0,0,0,0,0,0,0,-0.039,-0.04,-0.0484,-0.0491,-0.0498,-0.0514,-0.0526,-0.0571,-0.0648,-0.0588,-0.0594,-0.0599,-0.0726,-0.0744,-0.0754,-0.0823,-0.0816,-0.0821,-0.0824,-0.0826,-0.0824,-0.0821,0,0,0,0,0,0,-0.0373,-0.0396,-0.0481,-0.0487,-0.0447,-0.0515,-0.0528,-0.0549,-0.0646,-0.0661,-0.0598,-0.0603,-0.0735,-0.0748,-0.076,-0.0685,-0.0821,-0.0826,-0.0829,-0.0827,-0.0823,-0.082,0,0,0,0,0,0,-0.037,-0.038,-0.0478,-0.044,-0.0453,-0.0515,-0.0538,-0.055,-0.0575,-0.0652,-0.0669,-0.0611,-0.0736,-0.0753,-0.0792,-0.0695,-0.0829,-0.0833,-0.0831,-0.0826,-0.0821,-0.059,0,0,0,0,0,0,-0.0367,-0.0379,-0.04,-0.0439,-0.0455,-0.048,-0.0537,-0.0551,-0.0575,-0.0583,-0.0669,-0.0685,-0.0739,-0.0783,-0.0797,-0.0705,-0.0838,-0.0835,-0.0828,-0.0823,-0.0602,-0.0578,-0.0558,0,0,0,0,0,-0.0363,-0.0402,-0.04,-0.0411,-0.0478,-0.0479,-0.0488,-0.0538,-0.0574,-0.0569,-0.063,-0.0683,-0.0753,-0.0786,-0.0803,-0.0709,-0.0838,-0.083,-0.0823,-0.0612,-0.0583,-0.0559,0,0,0,0,0,0,-0.0382,-0.0415,-0.0415,-0.0466,-0.0454,-0.0492,-0.0521,-0.0531,-0.0576,-0.0602,-0.0671,-0.0689,-0.067,-0.0737,-0.0771,-0.069,-0.0792,-0.0788,-0.0625,-0.0599,-0.0577,-0.0568,-0.0842,0,0,0,0,0,-0.0384,-0.0422,-0.0418,-0.0459,-0.0456,-0.0478,-0.0493,-0.0507,-0.0545,-0.0567,-0.0606,-0.0649,-0.065,-0.0668,-0.0694,-0.0678,-0.0795,-0.062,-0.0598,-0.0579,-0.0581,-0.0671,-0.0659,-0.0796,-0.0796,-0.0796,0,0,-0.0405,-0.0429,-0.0452,-0.0463,-0.0478,-0.0427,-0.0493,-0.0509,-0.0448,-0.0578,-0.0542,-0.0582,-0.0631,-0.0589,-0.0584,-0.0637,-0.0604,-0.057,-0.0553,-0.0567,-0.0663,-0.065,-0.0639,-0.0791,-0.0792,-0.0793,0,0,-0.0432,-0.0478,-0.0486,-0.0452,-0.0445,-0.0434,-0.0423,-0.0425,-0.0417,-0.0382,-0.0434,-0.0422,-0.0451,-0.0438,-0.0442,-0.0322,-0.0482,-0.0324,-0.0208,-0.0293,-0.0283,-0.0276,-0.0425,-0.0433,-0.0314,-0.0314,-0.0313,0,-0.0449,-0.0439,-0.0483,-0.0439,-0.0393,-0.0416,-0.0343,-0.0327,-0.0328,-0.0318,-0.0344,-0.0347,-0.0359,-0.0305,-0.023,-0.0264,-0.0392,-0.0299,-0.0266,-0.0261,-0.0258,-0.0412,-0.0424,-0.0302,-0.0303,-0.0304,-0.0305,0,-0.0442,-0.0399,-0.0402,-0.0333,-0.0291,-0.0249,-0.0189,-0.0157,-0.0143,-0.0133,-0.0093,-0.0116,-0.0139,-0.0084,-0.0109,-0.006,-0.0187,-0.0226,-0.0334,-0.023,-0.04,-0.0416,-0.0284,-0.0289,-0.0292,-0.0295,0,0,-0.0561,-0.0414,-0.0414,-0.0348,-0.0217,-0.0218,-0.0073,0.0009,-0.0025,0.0067,0.0042,0.0181,0.0103,0.0095,0.0065,0.0053,0.0016,-0.0061,-0.0071,-0.0213,-0.0254,-0.0458,-0.0499,-0.0045,-0.0046,-0.0047,-0.039,0,-0.0522,-0.0403,-0.0325,-0.0203,-0.0122,-0.0042,0.0036,0.0097,0.0108,0.0056,0.012,0.0044,0.0186,0.0093,0.0156,-0.0016,-0.0017,0.0108,-0.0332,-0.0346,-0.0542,-0.0518,-0.0831,-0.1174,-0.0407,-0.041,-0.0413,0,-0.0516,-0.0435,-0.0272,-0.0155,-0.0133,-0.0084,-0.0038,0.001,0.0007,-0.0009,0.0024,-0.0029,0.0003,0.004,-0.0039,0.0005,-0.007,-0.0152,-0.017,-0.0457,-0.058,-0.1151,-0.1235,-0.1365,-0.044,-0.0438,-0.0436,0,-0.0578,-0.0417,-0.0293,-0.0229,-0.0091,-0.0066,-0.0064,-0.0039,-0.0132,-0.0153,-0.0286,-0.0186,-0.0337,-0.0292,-0.0351,-0.0253,-0.0549,-0.0463,-0.069,-0.0711,-0.1111,-0.1164,-0.1379,-0.0503,-0.0502,-0.0501,-0.05,0,-0.054,-0.0471,-0.0359,-0.0296,-0.0321,-0.0212,-0.0326,-0.0292,-0.0421,-0.0649,-0.0425,-0.0623,-0.0441,-0.0562,-0.0489,-0.0697,-0.0658,-0.0696,-0.0807,-0.1041,-0.1081,-0.1321,-0.1301,-0.0514,-0.0512,-0.0509,-0.0507,0,-0.0583,-0.0465,-0.038,-0.0295,-0.0328,-0.0391,-0.0576,-0.0748,-0.0771,-0.108,-0.1133,-0.1087,-0.1222,-0.1076,-0.1156,-0.1032,-0.127,-0.1195,-0.1504,-0.1639,-0.1886,-0.1841,-0.2127,-0.2173,-0.149,-0.1497,-0.1503,0,-0.0569,-0.0504,-0.0463,-0.0569,-0.0556,-0.0689,-0.0866,-0.093,-0.1156,-0.142,-0.1636,-0.1777,-0.1971,-0.2074,-0.19,-0.1875,-0.172,-0.207,-0.1843,-0.1977,-0.2008,-0.1869,-0.1869,-0.2308,-0.232,-0.233,-0.2338,0,-0.0576,-0.0565,-0.0548,-0.0722,-0.0912,-0.114,-0.14,-0.164,-0.1828,-0.2143,-0.2601,-0.2797,-0.282,-0.2976,-0.2783,-0.2642,-0.2243,-0.2271,-0.235,-0.2616,-0.2549,-0.2628,-0.202,-0.2425,-0.2417,-0.241,-0.2405,-0.2402,-0.0663,-0.0683,-0.071,-0.0891,-0.1159,-0.1551,-0.1685,-0.21,-0.2551,-0.2921,-0.3351,-0.37,-0.3904,-0.3696,-0.3502,-0.3318,-0.2958,-0.3222,-0.3154,-0.2993,-0.3034,-0.2625,-0.3163,-0.3158,-0.3155,-0.3151,-0.3148,0,-0.0707,-0.074,-0.0926,-0.1111,-0.14,-0.1517,-0.1976,-0.2085,-0.257,-0.3206,-0.3716,-0.464,-0.4861,-0.4641,-0.4529,-0.4317,-0.3995,-0.4108,-0.3991,-0.393,-0.3616,-0.3648,-0.4392,-0.4392,-0.4392,-0.4392,-0.4391,-0.4391,-0.0746,-0.082,-0.0862,-0.1216,-0.1402,-0.1656,-0.1845,-0.2115,-0.2461,-0.3244,-0.3872,-0.4397,-0.4766,-0.5479,-0.534,-0.5023,-0.4779,-0.4714,-0.4463,-0.4291,-0.42,-0.4113,-0.4139,-0.4974,-0.4974,-0.4858,-0.4858,-0.4859]},{"header":{"parameterUnit":"m.s-1","parameterCategory":2,"la1":30.2991,"la2":30.254,"lo1":-89.0895,"lo2":-89.0444,"dy":0.0017,"dx":0.0017,"nx":28,"ny":28,"refTime":"2024-02-02T09:00:00:Z","depth":"0","parameterNumber":3,"parameterNumberName":"V-component_of_CURRENTS"},"data":[0,0,0,0,0,0,0,0,0,0,0,0,0,0,0,0,0,0,0,0,0,0,0,0,0,0,0,0,0,0,0,0,0,0,0,0,0,0,0,0,0,0,0,0,0,0,0,0,0,0,0,0,0,0,0,0,0,0,-0.0135,-0.0134,0,-0.0092,-0.0092,-0.0092,-0.0062,-0.0061,-0.0061,-0.0061,-0.0147,-0.0149,-0.0152,0,0,0,0,0,0,0,0,0,0,0,0,0,-0.0222,-0.0221,-0.0135,-0.0134,-0.0133,-0.0092,-0.0092,-0.0092,-0.0062,-0.0061,-0.0061,-0.0061,-0.0146,-0.0149,-0.0152,0,0,0,0,0,0,0,0,0,0,0,0,0,-0.0184,-0.022,-0.0135,-0.0113,-0.011,-0.0093,-0.0092,-0.0091,-0.0062,-0.0061,-0.0061,-0.006,-0.0145,-0.0149,-0.0153,-0.0187,0,0,-0.0165,-0.0166,0,0,0,0,0,0,0,0,-0.0186,-0.0181,-0.0117,-0.0114,-0.0111,-0.0081,-0.0154,-0.0129,-0.0062,-0.0082,-0.0061,-0.006,-0.0136,-0.0141,-0.0134,-0.0191,-0.0195,-0.0165,-0.0167,-0.0169,-0.017,0,0,0,0,0,0,0,-0.0188,-0.0182,-0.0119,-0.0116,-0.0113,-0.0116,-0.011,-0.0149,-0.0116,-0.008,-0.0077,-0.0071,-0.0136,-0.013,-0.0136,-0.0196,-0.0165,-0.0168,-0.0171,-0.0172,-0.0172,-0.017,0,0,0,0,0,0,-0.019,-0.0185,-0.0121,-0.0118,-0.0147,-0.0115,-0.0108,-0.0092,-0.0112,-0.0114,-0.0071,-0.0069,-0.0124,-0.0132,-0.0139,-0.0135,-0.0169,-0.0173,-0.0175,-0.0174,-0.0172,-0.0169,0,0,0,0,0,0,-0.0192,-0.0184,-0.0122,-0.015,-0.0142,-0.0113,-0.0096,-0.0092,-0.0079,-0.0104,-0.0108,-0.0062,-0.0124,-0.0134,-0.013,-0.0141,-0.0174,-0.0178,-0.0177,-0.0174,-0.017,-0.0159,0,0,0,0,0,0,-0.0194,-0.0185,-0.0178,-0.015,-0.0141,-0.0098,-0.0096,-0.0091,-0.0075,-0.0073,-0.0099,-0.0106,-0.0124,-0.0124,-0.0134,-0.0147,-0.0181,-0.018,-0.0176,-0.0171,-0.0162,-0.0155,-0.015,0,0,0,0,0,-0.0197,-0.0181,-0.0178,-0.0171,-0.0131,-0.0098,-0.0093,-0.0073,-0.0076,-0.0062,-0.0058,-0.0105,-0.0103,-0.0125,-0.0138,-0.0152,-0.0182,-0.0177,-0.0172,-0.0165,-0.0157,-0.015,0,0,0,0,0,0,-0.0218,-0.0175,-0.0172,-0.0145,-0.012,-0.0092,-0.0075,-0.0072,-0.0059,-0.0055,-0.0085,-0.0091,-0.0089,-0.0107,-0.0131,-0.0128,-0.0148,-0.0145,-0.0138,-0.0131,-0.0125,-0.0146,-0.0184,0,0,0,0,0,-0.0221,-0.0196,-0.0162,-0.0143,-0.0125,-0.0105,-0.0092,-0.0076,-0.006,-0.0053,-0.0068,-0.0073,-0.0079,-0.0092,-0.0096,-0.0112,-0.014,-0.0119,-0.0112,-0.0108,-0.0126,-0.019,-0.0193,-0.0152,-0.0152,-0.0152,0,0,-0.0231,-0.02,-0.0191,-0.0147,-0.0124,-0.0074,-0.0094,-0.0063,-0.0037,-0.007,-0.0043,-0.0058,-0.0071,-0.0067,-0.0071,-0.0089,-0.0115,-0.0101,-0.0097,-0.0119,-0.0185,-0.019,-0.0194,-0.0148,-0.0149,-0.0149,0,0,-0.02,-0.02,-0.0149,-0.0118,-0.0072,-0.0062,-0.0051,-0.0018,-0.0019,0.0003,-0.0006,-0.0022,-0.0026,-0.0044,-0.0054,-0.0018,-0.0075,-0.001,-0.0018,-0.0079,-0.0085,-0.0091,-0.007,-0.0074,-0.0016,-0.0016,-0.0016,0,-0.0213,-0.0135,-0.0135,-0.0063,-0.0036,-0.0049,0.0013,0.0011,0.0036,0.0003,0.0022,-0.0013,-0.0019,-0.0056,-0.0017,-0.0015,-0.0029,-0.0057,-0.0078,-0.0085,-0.0091,-0.0069,-0.0074,-0.0015,-0.0015,-0.0015,-0.0015,0,-0.0128,-0.0063,-0.003,0.0053,0.0071,0.0118,0.0122,0.011,0.0095,0.0071,0.0027,0.0021,-0.0013,-0.0007,0.0003,-0.0045,-0.0028,-0.0063,-0.0115,-0.0096,-0.0071,-0.0077,-0.0013,-0.0014,-0.0014,-0.0014,0,0,-0.0166,0.0002,0.0013,0.0074,0.0137,0.0155,0.0166,0.0147,0.0103,0.0095,0.0036,0.0038,-0.0014,-0.0024,-0.0039,-0.0084,-0.0098,-0.0084,-0.0088,-0.0092,-0.0178,-0.0052,-0.0046,-0.0154,-0.0157,-0.0158,-0.0122,0,-0.0097,0.0067,0.0118,0.0225,0.0298,0.0274,0.027,0.0227,0.0168,0.0099,0.0024,-0.0011,-0.0008,-0.0024,-0.0075,-0.0106,-0.0123,-0.0101,-0.0171,-0.0171,-0.009,-0.0054,0.0055,0.0104,-0.0128,-0.0129,-0.0129,0,-0.0025,0.0072,0.0206,0.0303,0.0322,0.0349,0.028,0.0295,0.0167,0.0118,0.0025,-0.004,-0.0098,-0.0092,-0.0169,-0.0159,-0.0154,-0.0175,-0.0176,-0.008,-0.0059,0.0038,0.0101,0.029,-0.0139,-0.0138,-0.0137,0,-0.0053,0.0127,0.0226,0.0266,0.0355,0.0344,0.0366,0.0266,0.025,0.0125,0.0081,-0.0046,-0.0073,-0.0144,-0.0154,-0.0174,-0.0227,-0.0267,-0.0145,-0.0133,-0.0066,-0.0044,0.0136,-0.0313,-0.0313,-0.0313,-0.0313,0,0.0006,0.0082,0.0213,0.0259,0.0276,0.0353,0.0321,0.0285,0.025,0.0227,0.0104,0.0056,-0.0091,-0.0144,-0.0169,-0.0148,-0.0234,-0.0135,-0.013,-0.0043,-0.0021,0.0125,0.0233,-0.0312,-0.0312,-0.0312,-0.0313,0,-0.0033,0.0087,0.0163,0.0254,0.0271,0.0268,0.034,0.0297,0.0307,0.0279,0.0262,0.0133,0.0071,-0.0031,-0.0126,-0.012,-0.0033,-0.0101,0.0062,0.0086,0.0367,0.0472,0.0634,0.0554,0.0014,0.0017,0.002,0,-0.0018,0.0026,0.01,0.009,0.0126,0.0169,0.016,0.0264,0.0275,0.0341,0.032,0.0262,0.0218,0.0141,0.0096,0.0079,0.0123,0.0199,0.0173,0.0423,0.054,0.0578,0.0494,0.0294,0.0299,0.0303,0.0306,0,-0.007,-0.0073,-0.0048,-0.0073,-0.007,-0.0014,0.0056,0.0116,0.0264,0.0353,0.0462,0.0469,0.0407,0.044,0.0404,0.0346,0.0356,0.0281,0.0454,0.0725,0.0856,0.0768,0.0289,0.034,0.0336,0.0334,0.0332,0.0331,-0.0189,-0.0233,-0.025,-0.0289,-0.0277,-0.0226,-0.0184,-0.0015,0.0144,0.0382,0.0597,0.0817,0.098,0.0917,0.0753,0.0773,0.0639,0.0834,0.093,0.0934,0.0903,0.0561,0.0665,0.0664,0.0662,0.0661,0.066,0,-0.0354,-0.0402,-0.046,-0.0505,-0.0551,-0.0452,-0.0311,-0.0224,-0.001,0.0429,0.0753,0.1496,0.1587,0.1531,0.1603,0.1541,0.1276,0.1492,0.1557,0.1406,0.1051,0.1112,0.1422,0.1422,0.1422,0.1421,0.1421,0.1421,-0.0452,-0.0583,-0.0623,-0.0777,-0.0781,-0.0754,-0.0662,-0.0446,-0.0129,0.0519,0.1141,0.1573,0.2088,0.2755,0.2638,0.2347,0.2194,0.2188,0.2038,0.1883,0.1827,0.1773,0.1854,0.2314,0.2316,0.2288,0.229,0.2292]}],[{"header":{"parameterUnit":"m.s-1","parameterCategory":2,"la1":30.2991,"la2":30.254,"lo1":-89.0895,"lo2":-89.0444,"dy":0.0017,"dx":0.0017,"nx":28,"ny":28,"refTime":"2024-02-02T09:00:00:Z","depth":"2","parameterNumber":2,"parameterNumberName":"U-component_of_CURRENTS"},"data":[0,0,0,0,0,0,0,0,0,0,0,0,0,0,0,0,0,0,0,0,0,0,0,0,0,0,0,0,0,0,0,0,0,0,0,0,0,0,0,0,0,0,0,0,0,0,0,0,0,0,0,0,0,0,0,0,0,0,-0.0414,-0.0414,0,-0.0507,-0.0508,-0.0509,-0.0598,-0.0599,-0.06,-0.0601,-0.0762,-0.0766,-0.0769,0,0,0,0,0,0,0,0,0,0,0,0,0,-0.0297,-0.0299,-0.0414,-0.0415,-0.0415,-0.0506,-0.0508,-0.0509,-0.0598,-0.0599,-0.06,-0.0601,-0.0761,-0.0765,-0.0769,0,0,0,0,0,0,0,0,0,0,0,0,0,-0.0367,-0.03,-0.0413,-0.0469,-0.0474,-0.0506,-0.0508,-0.051,-0.0598,-0.0599,-0.06,-0.0602,-0.076,-0.0765,-0.077,-0.0776,0,0,-0.0786,-0.0788,0,0,0,0,0,0,0,0,-0.0363,-0.0372,-0.046,-0.0465,-0.0471,-0.054,-0.0526,-0.0601,-0.0597,-0.0554,-0.0601,-0.0602,-0.0691,-0.0702,-0.072,-0.0783,-0.079,-0.0786,-0.0789,-0.0792,-0.0793,0,0,0,0,0,0,0,-0.0358,-0.0368,-0.0453,-0.046,-0.0467,-0.0483,-0.0495,-0.054,-0.0617,-0.0558,-0.0564,-0.0569,-0.0696,-0.0714,-0.0724,-0.0793,-0.0786,-0.0791,-0.0794,-0.0796,-0.0794,-0.0791,0,0,0,0,0,0,-0.0341,-0.0364,-0.045,-0.0456,-0.0416,-0.0484,-0.0497,-0.0519,-0.0616,-0.063,-0.0568,-0.0573,-0.0705,-0.0718,-0.073,-0.0654,-0.0792,-0.0797,-0.08,-0.0797,-0.0793,-0.0789,0,0,0,0,0,0,-0.0338,-0.0348,-0.0446,-0.0408,-0.0422,-0.0484,-0.0508,-0.052,-0.0545,-0.0622,-0.0639,-0.0581,-0.0706,-0.0723,-0.0762,-0.0665,-0.0799,-0.0804,-0.08,-0.0796,-0.0791,-0.056,0,0,0,0,0,0,-0.0335,-0.0347,-0.0368,-0.0408,-0.0423,-0.045,-0.0506,-0.052,-0.0545,-0.0553,-0.0639,-0.0655,-0.0709,-0.0753,-0.0767,-0.0675,-0.0808,-0.0805,-0.0798,-0.0793,-0.0571,-0.0548,-0.0527,0,0,0,0,0,-0.033,-0.037,-0.0369,-0.0379,-0.0447,-0.0448,-0.0457,-0.0507,-0.0544,-0.0539,-0.06,-0.0653,-0.0723,-0.0756,-0.0773,-0.0679,-0.0807,-0.08,-0.0793,-0.0581,-0.0552,-0.0528,0,0,0,0,0,0,-0.0349,-0.0383,-0.0383,-0.0435,-0.0422,-0.0462,-0.0491,-0.0501,-0.0546,-0.0571,-0.0641,-0.066,-0.064,-0.0707,-0.0741,-0.066,-0.0762,-0.0758,-0.0595,-0.0569,-0.0547,-0.0538,-0.0812,0,0,0,0,0,-0.0351,-0.0389,-0.0386,-0.0427,-0.0424,-0.0447,-0.0462,-0.0476,-0.0514,-0.0537,-0.0576,-0.0619,-0.062,-0.0638,-0.0664,-0.0648,-0.0765,-0.059,-0.0568,-0.0548,-0.0551,-0.0641,-0.0628,-0.0766,-0.0766,-0.0766,0,0,-0.0372,-0.0396,-0.0419,-0.0431,-0.0447,-0.0395,-0.0462,-0.0478,-0.0418,-0.0548,-0.0512,-0.0552,-0.0601,-0.0558,-0.0554,-0.0606,-0.0573,-0.0539,-0.0522,-0.0536,-0.0632,-0.062,-0.0608,-0.0761,-0.0762,-0.0763,0,0,-0.0398,-0.0445,-0.0453,-0.042,-0.0414,-0.0402,-0.0392,-0.0394,-0.0387,-0.0351,-0.0404,-0.0392,-0.0421,-0.0408,-0.0411,-0.0291,-0.0451,-0.0293,-0.0177,-0.0262,-0.0252,-0.0245,-0.0394,-0.0402,-0.0283,-0.0282,-0.0282,0,-0.0415,-0.0405,-0.0451,-0.0407,-0.0361,-0.0385,-0.0311,-0.0296,-0.0297,-0.0287,-0.0313,-0.0316,-0.0328,-0.0274,-0.0199,-0.0233,-0.0361,-0.0268,-0.0234,-0.023,-0.0227,-0.0381,-0.0393,-0.027,-0.0272,-0.0273,-0.0274,0,-0.0408,-0.0365,-0.0369,-0.0299,-0.0258,-0.0216,-0.0157,-0.0125,-0.0112,-0.0101,-0.0061,-0.0085,-0.0108,-0.0052,-0.0077,-0.0028,-0.0155,-0.0195,-0.0303,-0.0199,-0.0369,-0.0385,-0.0253,-0.0258,-0.0261,-0.0264,0,0,-0.0527,-0.038,-0.038,-0.0315,-0.0184,-0.0185,-0.004,0.0042,0.0008,0.0099,0.0073,0.0213,0.0135,0.0127,0.0097,0.0085,0.0048,-0.0029,-0.0039,-0.0181,-0.0223,-0.0427,-0.0468,-0.0014,-0.0014,-0.0015,-0.0358,0,-0.0487,-0.0368,-0.0291,-0.0169,-0.0087,-0.0008,0.0069,0.013,0.014,0.0088,0.0152,0.0076,0.0218,0.0125,0.0188,0.0016,0.0015,0.014,-0.0301,-0.0315,-0.0511,-0.0487,-0.0082,-0.0364,-0.0376,-0.0379,-0.0381,0,-0.0481,-0.0401,-0.0237,-0.012,-0.0099,-0.0049,-0.0004,0.0043,0.004,0.0023,0.0056,0.0002,0.0035,0.0072,-0.0007,0.0037,-0.0039,-0.0121,-0.0139,-0.0425,-0.0549,-0.0467,-0.0396,-0.0411,-0.0409,-0.0406,-0.0405,0,-0.0543,-0.0382,-0.0258,-0.0193,-0.0056,-0.0032,-0.003,-0.0005,-0.0099,-0.0121,-0.0255,-0.0155,-0.0306,-0.0261,-0.032,-0.0222,-0.0518,-0.0432,-0.0659,-0.068,-0.0469,-0.047,-0.0472,-0.0472,-0.0471,-0.047,-0.0469,0,-0.0504,-0.0435,-0.0323,-0.0261,-0.0286,-0.0178,-0.0292,-0.0259,-0.0389,-0.0618,-0.0394,-0.0593,-0.0411,-0.0532,-0.0459,-0.0666,-0.0628,-0.0665,-0.0776,-0.0383,-0.0373,-0.0511,-0.0511,-0.0483,-0.048,-0.0478,-0.0476,0,-0.0547,-0.0429,-0.0345,-0.026,-0.0293,-0.0357,-0.0543,-0.0714,-0.074,-0.1049,-0.1103,-0.1058,-0.1193,-0.1047,-0.1126,-0.1003,-0.1096,-0.1165,-0.0755,-0.0811,-0.1152,-0.1135,-0.1441,-0.1451,-0.1459,-0.1466,-0.1472,0,-0.0533,-0.0468,-0.0428,-0.0533,-0.0521,-0.0654,-0.083,-0.0895,-0.1122,-0.1389,-0.1606,-0.1748,-0.1851,-0.1954,-0.1499,-0.1382,-0.1524,-0.1293,-0.0967,-0.1172,-0.1249,-0.1218,-0.1191,-0.0587,-0.0585,-0.0583,-0.0582,0,-0.054,-0.053,-0.0513,-0.0686,-0.0876,-0.1102,-0.1362,-0.1601,-0.1792,-0.2017,-0.2477,-0.2584,-0.2347,-0.1962,-0.1657,-0.1512,-0.1236,-0.1284,-0.1604,-0.0452,-0.0407,-0.0471,-0.0462,-0.0569,-0.057,-0.0571,-0.0572,-0.0572,-0.0627,-0.0648,-0.0675,-0.0856,-0.1122,-0.151,-0.1643,-0.1799,-0.213,-0.2133,-0.2745,-0.2557,-0.2302,-0.1447,-0.1392,-0.1129,-0.1146,-0.1145,-0.1129,-0.1119,-0.1007,-0.0984,-0.1235,-0.124,-0.1245,-0.1248,-0.1252,0,-0.0636,-0.0706,-0.0891,-0.1075,-0.1295,-0.1478,-0.1933,-0.1762,-0.1811,-0.1931,-0.2012,-0.1805,-0.1476,-0.132,-0.0691,-0.0669,-0.034,-0.0925,-0.0463,-0.0473,-0.0483,-0.0321,-0.0378,-0.0378,-0.0379,-0.0379,0,0,-0.0666,-0.0723,-0.0765,-0.1064,-0.1283,-0.1362,-0.1545,-0.124,-0.1096,-0.0902,-0.0816,-0.0767,-0.1067,-0.0615,-0.0534,-0.0427,-0.0423,-0.0367,-0.1005,-0.0447,-0.0458,-0.0506,-0.0261,0,0,0,0,0]},{"header":{"parameterUnit":"m.s-1","parameterCategory":2,"la1":30.2991,"la2":30.254,"lo1":-89.0895,"lo2":-89.0444,"dy":0.0017,"dx":0.0017,"nx":28,"ny":28,"refTime":"2024-02-02T09:00:00:Z","depth":"2","parameterNumber":3,"parameterNumberName":"V-component_of_CURRENTS"},"data":[0,0,0,0,0,0,0,0,0,0,0,0,0,0,0,0,0,0,0,0,0,0,0,0,0,0,0,0,0,0,0,0,0,0,0,0,0,0,0,0,0,0,0,0,0,0,0,0,0,0,0,0,0,0,0,0,0,0,-0.0132,-0.0132,0,-0.009,-0.0089,-0.0089,-0.0059,-0.0059,-0.0058,-0.0058,-0.0144,-0.0146,-0.0149,0,0,0,0,0,0,0,0,0,0,0,0,0,-0.022,-0.0218,-0.0132,-0.0132,-0.0131,-0.009,-0.0089,-0.0089,-0.0059,-0.0059,-0.0058,-0.0058,-0.0143,-0.0146,-0.0149,0,0,0,0,0,0,0,0,0,0,0,0,0,-0.0181,-0.0217,-0.0132,-0.011,-0.0108,-0.009,-0.0089,-0.0089,-0.0059,-0.0059,-0.0058,-0.0058,-0.0142,-0.0146,-0.015,-0.0184,0,0,-0.0162,-0.0163,0,0,0,0,0,0,0,0,-0.0183,-0.0178,-0.0114,-0.0112,-0.0109,-0.0078,-0.0151,-0.0127,-0.0059,-0.0079,-0.0058,-0.0057,-0.0133,-0.0138,-0.0131,-0.0188,-0.0192,-0.0162,-0.0164,-0.0166,-0.0167,0,0,0,0,0,0,0,-0.0186,-0.018,-0.0117,-0.0113,-0.011,-0.0113,-0.0107,-0.0146,-0.0113,-0.0077,-0.0075,-0.0068,-0.0133,-0.0127,-0.0133,-0.0193,-0.0162,-0.0165,-0.0168,-0.0169,-0.0169,-0.0167,0,0,0,0,0,0,-0.0187,-0.0182,-0.0118,-0.0115,-0.0144,-0.0112,-0.0105,-0.009,-0.011,-0.0111,-0.0069,-0.0067,-0.0121,-0.0129,-0.0136,-0.0133,-0.0166,-0.017,-0.0172,-0.0171,-0.0168,-0.0166,0,0,0,0,0,0,-0.0189,-0.0182,-0.012,-0.0148,-0.014,-0.0111,-0.0094,-0.0089,-0.0076,-0.0101,-0.0105,-0.006,-0.0121,-0.0131,-0.0128,-0.0138,-0.0171,-0.0175,-0.0174,-0.017,-0.0167,-0.0156,0,0,0,0,0,0,-0.0192,-0.0182,-0.0176,-0.0147,-0.0138,-0.0096,-0.0094,-0.0088,-0.0073,-0.007,-0.0096,-0.0103,-0.0121,-0.0121,-0.0131,-0.0144,-0.0178,-0.0177,-0.0172,-0.0168,-0.0159,-0.0153,-0.0147,0,0,0,0,0,-0.0195,-0.0178,-0.0176,-0.0168,-0.0128,-0.0095,-0.0091,-0.007,-0.0073,-0.0059,-0.0055,-0.0102,-0.01,-0.0122,-0.0135,-0.0149,-0.0179,-0.0174,-0.0169,-0.0162,-0.0154,-0.0147,0,0,0,0,0,0,-0.0216,-0.0173,-0.0169,-0.0142,-0.0118,-0.0089,-0.0073,-0.007,-0.0057,-0.0053,-0.0082,-0.0088,-0.0087,-0.0104,-0.0128,-0.0125,-0.0145,-0.0142,-0.0135,-0.0128,-0.0122,-0.0143,-0.0181,0,0,0,0,0,-0.0218,-0.0193,-0.016,-0.0141,-0.0123,-0.0102,-0.009,-0.0074,-0.0057,-0.005,-0.0065,-0.007,-0.0076,-0.0089,-0.0093,-0.0109,-0.0137,-0.0116,-0.011,-0.0105,-0.0123,-0.0186,-0.019,-0.0148,-0.0149,-0.0149,0,0,-0.0229,-0.0197,-0.0189,-0.0144,-0.0121,-0.0072,-0.0092,-0.006,-0.0035,-0.0067,-0.0041,-0.0055,-0.0068,-0.0065,-0.0068,-0.0086,-0.0113,-0.0098,-0.0095,-0.0116,-0.0182,-0.0187,-0.0191,-0.0145,-0.0146,-0.0146,0,0,-0.0198,-0.0198,-0.0147,-0.0116,-0.007,-0.0059,-0.0049,-0.0016,-0.0017,0.0005,-0.0004,-0.002,-0.0024,-0.0041,-0.0051,-0.0015,-0.0072,-0.0008,-0.0016,-0.0076,-0.0082,-0.0088,-0.0067,-0.0072,-0.0014,-0.0014,-0.0014,0,-0.0211,-0.0133,-0.0133,-0.0061,-0.0034,-0.0047,0.0015,0.0013,0.0038,0.0006,0.0024,-0.0011,-0.0016,-0.0053,-0.0015,-0.0012,-0.0027,-0.0054,-0.0075,-0.0082,-0.0088,-0.0067,-0.0072,-0.0012,-0.0013,-0.0013,-0.0013,0,-0.0126,-0.0061,-0.0029,0.0055,0.0073,0.012,0.0124,0.0112,0.0097,0.0073,0.003,0.0023,-0.0011,-0.0004,0.0005,-0.0043,-0.0026,-0.0061,-0.0113,-0.0093,-0.0068,-0.0074,-0.0011,-0.0011,-0.0012,-0.0012,0,0,-0.0165,0.0003,0.0014,0.0076,0.0139,0.0157,0.0169,0.015,0.0106,0.0098,0.0039,0.0041,-0.0011,-0.0021,-0.0036,-0.0081,-0.0096,-0.0081,-0.0085,-0.009,-0.0176,-0.005,-0.0044,-0.0151,-0.0154,-0.0155,-0.0119,0,-0.0095,0.0069,0.0119,0.0227,0.03,0.0276,0.0272,0.023,0.0171,0.0102,0.0027,-0.0007,-0.0005,-0.0021,-0.0072,-0.0104,-0.012,-0.0099,-0.0168,-0.0168,-0.0087,-0.0051,-0.006,-0.0021,-0.0125,-0.0126,-0.0127,0,-0.0024,0.0073,0.0208,0.0306,0.0325,0.0352,0.0284,0.0299,0.0171,0.0121,0.0028,-0.0036,-0.0094,-0.0089,-0.0166,-0.0155,-0.0151,-0.0172,-0.0172,-0.0077,-0.0056,-0.0066,-0.0028,-0.0137,-0.0136,-0.0135,-0.0135,0,-0.0051,0.0128,0.0228,0.0269,0.0358,0.0348,0.037,0.027,0.0254,0.0129,0.0085,-0.0042,-0.0069,-0.014,-0.0151,-0.017,-0.0224,-0.0263,-0.0142,-0.013,-0.0162,-0.015,-0.031,-0.031,-0.031,-0.031,-0.031,0,0.0008,0.0084,0.0215,0.0261,0.0279,0.0357,0.0325,0.029,0.0255,0.0231,0.0108,0.006,-0.0087,-0.014,-0.0166,-0.0145,-0.0231,-0.0132,-0.0127,-0.0142,-0.0129,-0.0267,-0.0263,-0.0308,-0.0309,-0.0309,-0.0309,0,-0.0032,0.0088,0.0165,0.0257,0.0274,0.0272,0.0344,0.0301,0.0311,0.0282,0.0266,0.0137,0.0074,-0.0028,-0.0123,-0.0117,-0.0139,-0.0098,-0.0052,-0.0041,0.0002,0.0007,0.0009,0.0013,0.0017,0.002,0.0023,0,-0.0017,0.0028,0.0103,0.0093,0.0129,0.0173,0.0164,0.0267,0.0278,0.0344,0.0323,0.0265,0.0206,0.0129,0.0059,0.0033,-0.0009,0.008,0.0038,0.0023,0.0027,0.0026,0.0026,0.0021,0.0023,0.0025,0.0027,0,-0.0068,-0.0072,-0.0045,-0.0069,-0.0067,-0.0011,0.0059,0.0118,0.0266,0.0327,0.0436,0.0429,0.0356,0.0291,0.024,0.0198,0.0069,0.0128,0.0038,-0.0032,0.0043,0.0045,0.0042,0.0044,0.0042,0.0041,0.004,0.0039,-0.0187,-0.0231,-0.0247,-0.0285,-0.0274,-0.0224,-0.0182,-0.0095,0.0026,0.0076,0.0326,0.0265,0.0371,0.0165,0.0298,0.0308,0.0238,0.0224,0.0211,0.0199,0.022,0.03,0.0357,0.0357,0.0357,0.0357,0.0357,0,-0.0344,-0.0399,-0.0457,-0.0501,-0.0542,-0.0449,-0.031,-0.0281,-0.0202,-0.0153,-0.0059,0.0093,0.0112,0.0191,0.0288,0.044,0.0347,0.0439,0.0318,0.0299,0.0283,0.0304,0.0465,0.0467,0.0468,0.0469,0,0,-0.044,-0.0566,-0.0606,-0.076,-0.077,-0.0759,-0.0668,-0.0627,-0.0578,-0.0525,-0.0516,-0.052,-0.0115,-0.0005,0.0237,0.0357,0.0243,0.0319,0.0203,0.001,-0.0008,0.0126,0.0136,0,0,0,0,0]}],[{"header":{"parameterUnit":"m.s-1","parameterCategory":2,"la1":30.2991,"la2":30.254,"lo1":-89.0895,"lo2":-89.0444,"dy":0.0017,"dx":0.0017,"nx":28,"ny":28,"refTime":"2024-02-02T09:00:00:Z","depth":"4","parameterNumber":2,"parameterNumberName":"U-component_of_CURRENTS"},"data":[0,0,0,0,0,0,0,0,0,0,0,0,0,0,0,0,0,0,0,0,0,0,0,0,0,0,0,0,0,0,0,0,0,0,0,0,0,0,0,0,0,0,0,0,0,0,0,0,0,0,0,0,0,0,0,0,0,0,0.1117,0.1117,0,0.1117,0.1117,0.1117,0.1104,0.1104,0.1103,0.1103,0.1256,0.126,0.1264,0,0,0,0,0,0,0,0,0,0,0,0,0,0.1139,0.1138,0.1117,0.1117,0.1117,0.1117,0.1117,0.1117,0.1104,0.1104,0.1103,0.1103,0.1254,0.1259,0.1265,0,0,0,0,0,0,0,0,0,0,0,0,0,0.1132,0.1138,0.1117,0.1111,0.1111,0.1117,0.1117,0.1117,0.1104,0.1104,0.1103,0.1103,0.1253,0.1259,0.1265,0.1315,0,0,0.1285,0.1288,0,0,0,0,0,0,0,0,0.1133,0.1132,0.1112,0.1112,0.1111,0.111,0.118,0.1191,0.1104,0.1106,0.1103,0.1102,0.1222,0.1231,0.1229,0.1322,0.1329,0.1286,0.129,0.1293,0.1295,0,0,0,0,0,0,0,0.1133,0.1132,0.1117,0.1112,0.1111,0.1119,0.1117,0.1182,0.1169,0.1106,0.1105,0.1106,0.1223,0.1223,0.1233,0.1331,0.1286,0.1292,0.1296,0.1298,0.1503,0.1505,0,0,0,0,0,0,0.1133,0.1132,0.1117,0.1117,0.1121,0.1119,0.1117,0.1111,0.1165,0.1172,0.1106,0.1105,0.1212,0.1225,0.1239,0.1355,0.1293,0.1299,0.1303,0.1502,0.1504,0.1505,0,0,0,0,0,0,0.1133,0.1131,0.1117,0.1125,0.1124,0.1119,0.1112,0.1111,0.1127,0.1164,0.1173,0.1125,0.1212,0.123,0.1295,0.1359,0.1302,0.1308,0.15,0.1502,0.1504,0.1554,0,0,0,0,0,0,0.1133,0.1131,0.1141,0.1125,0.1123,0.1134,0.1112,0.1111,0.1127,0.1126,0.1184,0.1195,0.1213,0.1285,0.1301,0.1367,0.1313,0.1498,0.1501,0.1504,0.155,0.1557,0.1564,0,0,0,0,0,0.1134,0.1137,0.1142,0.1141,0.1132,0.1135,0.1135,0.113,0.1129,0.1142,0.1169,0.1194,0.1315,0.1291,0.131,0.1379,0.1497,0.15,0.1503,0.1547,0.1556,0.1564,0,0,0,0,0,0,0.1148,0.1136,0.114,0.114,0.1148,0.1133,0.1147,0.1145,0.1174,0.1186,0.1212,0.1227,0.131,0.1332,0.1304,0.1443,0.1413,0.142,0.144,0.1449,0.1455,0.1459,0.1318,0,0,0,0,0,0.1159,0.1162,0.1155,0.1162,0.1167,0.1166,0.1172,0.1172,0.1187,0.1198,0.124,0.1287,0.1337,0.1379,0.1425,0.1508,0.1487,0.1563,0.157,0.1576,0.159,0.1592,0.16,0.1516,0.1516,0.1516,0,0,0.1166,0.1163,0.1165,0.1167,0.1173,0.1194,0.1169,0.1187,0.1224,0.1218,0.1294,0.1318,0.1361,0.1439,0.1481,0.147,0.1583,0.158,0.1585,0.1596,0.1597,0.1605,0.1612,0.1519,0.1518,0.1518,0,0,0.1176,0.1184,0.119,0.1204,0.1221,0.1229,0.1241,0.1252,0.1279,0.1343,0.1347,0.1397,0.1487,0.1519,0.1548,0.1625,0.1613,0.1652,0.1705,0.1707,0.1713,0.1719,0.1673,0.1674,0.1662,0.1663,0.1663,0,0.1189,0.1187,0.1196,0.1212,0.1227,0.1249,0.1268,0.1311,0.1349,0.1377,0.1381,0.1485,0.1526,0.1606,0.1631,0.1646,0.1619,0.167,0.1715,0.172,0.1725,0.1676,0.1677,0.1665,0.1665,0.1665,0.1664,0,0.1199,0.1212,0.122,0.1252,0.128,0.1299,0.1352,0.1402,0.1442,0.1473,0.156,0.16,0.1645,0.1685,0.1691,0.1761,0.1718,0.1714,0.169,0.1736,0.1681,0.1681,0.1669,0.1668,0.1668,0.1667,0,0,0.1177,0.1215,0.1219,0.1208,0.1297,0.1285,0.1405,0.1464,0.149,0.1589,0.1625,0.1741,0.174,0.1772,0.1788,0.182,0.1828,0.1792,0.179,0.1738,0.1792,0.1581,0.156,0.1826,0.1827,0.1828,0.1728,0,0.1176,0.1171,0.1227,0.1238,0.1228,0.1316,0.1389,0.1465,0.1541,0.1592,0.1688,0.172,0.1782,0.1772,0.1833,0.1815,0.1835,0.1853,0.1763,0.176,0.1561,0.1556,0.1832,0.1727,0.1727,0.1727,0.1727,0,0.1163,0.1145,0.1141,0.1158,0.1166,0.1184,0.1256,0.133,0.1465,0.1528,0.1634,0.1687,0.1772,0.1789,0.1842,0.1845,0.1833,0.1832,0.1827,0.1617,0.1549,0.1681,0.1726,0.1726,0.1726,0.1726,0.1726,0,0.1063,0.1085,0.1053,0.1064,0.1108,0.1113,0.1148,0.1277,0.1314,0.1455,0.1471,0.1625,0.1624,0.1702,0.1733,0.1776,0.1744,0.1786,0.1594,0.1577,0.1777,0.1772,0.1814,0.1814,0.1814,0.1815,0.1815,0,0.1019,0.0991,0.0963,0.093,0.0866,0.0956,0.0933,0.1031,0.1134,0.1129,0.1375,0.1379,0.16,0.1626,0.1694,0.1609,0.1703,0.1588,0.1539,0.1795,0.1794,0.1774,0.177,0.1811,0.1812,0.1812,0.1813,0,0.0926,0.0936,0.0851,0.0822,0.0804,0.0736,0.0752,0.0754,0.0878,0.0879,0.0909,0.1153,0.12,0.137,0.1447,0.1465,0.1458,0.1403,0.1615,0.1581,0.1307,0.1309,0.1192,0.1183,0.1176,0.1171,0.1166,0,0.0889,0.0829,0.0712,0.0625,0.0592,0.0514,0.0494,0.061,0.0617,0.0698,0.0682,0.0777,0.0918,0.0878,0.1105,0.1194,0.1212,0.1189,0.1331,0.1281,0.1246,0.1258,0.1268,0.1155,0.1153,0.1151,0.1149,0,0.0779,0.0718,0.062,0.0455,0.0361,0.0289,0.0245,0.0218,0.0329,0.0409,0.0391,0.0472,0.0525,0.0721,0.0779,0.0866,0.121,0.1118,0.1136,0.1269,0.1235,0.1209,0.1227,0.1125,0.1129,0.1131,0.1132,0,0.0676,0.056,0.0428,0.0288,0.0189,0.0115,0.0087,0.0046,0.0067,0.0152,0.0106,0.0271,0.0405,0.0538,0.0593,0.066,0.0713,0.0731,0.0771,0.08,0.0745,0.0648,0.0294,0,0,0,0,0,0.0585,0.0463,0.0295,0.0177,0.0098,0.0087,-0.0019,-0.0016,0.0031,-0.0058,0.0016,0.0053,0.0166,0.0316,0.0332,0.053,0.0776,0.0549,0.0829,0.0991,0.1019,0.1006,0,0,0,0,0,0,0.0516,0.0355,0.0269,0.0155,0.0112,0.0064,0.0008,0.0007,-0.0037,-0.0018,0.0066,0.006,0.0237,0.0198,0.0365,0.0398,0.0556,0.0641,0.0638,0.0975,0.1,0.1023,0.1019,0,0,0,0,0]},{"header":{"parameterUnit":"m.s-1","parameterCategory":2,"la1":30.2991,"la2":30.254,"lo1":-89.0895,"lo2":-89.0444,"dy":0.0017,"dx":0.0017,"nx":28,"ny":28,"refTime":"2024-02-02T09:00:00:Z","depth":"4","parameterNumber":3,"parameterNumberName":"V-component_of_CURRENTS"},"data":[0,0,0,0,0,0,0,0,0,0,0,0,0,0,0,0,0,0,0,0,0,0,0,0,0,0,0,0,0,0,0,0,0,0,0,0,0,0,0,0,0,0,0,0,0,0,0,0,0,0,0,0,0,0,0,0,0,0,-0.0134,-0.0134,0,-0.0113,-0.0113,-0.0112,-0.0071,-0.007,-0.007,-0.0069,-0.0035,-0.0035,-0.0035,0,0,0,0,0,0,0,0,0,0,0,0,0,-0.0152,-0.0152,-0.0134,-0.0134,-0.0134,-0.0113,-0.0113,-0.0112,-0.0071,-0.007,-0.007,-0.0069,-0.0035,-0.0035,-0.0035,0,0,0,0,0,0,0,0,0,0,0,0,0,-0.0139,-0.0152,-0.0134,-0.0111,-0.0109,-0.0113,-0.0113,-0.0112,-0.0072,-0.007,-0.0069,-0.0068,-0.0035,-0.0035,-0.0035,-0.0056,0,0,-0.0034,-0.0034,0,0,0,0,0,0,0,0,-0.014,-0.0138,-0.0115,-0.0113,-0.011,-0.0094,-0.0107,-0.0093,-0.0072,-0.0085,-0.0069,-0.0068,-0.0055,-0.0053,-0.0051,-0.0055,-0.0053,-0.0034,-0.0034,-0.0034,-0.0033,0,0,0,0,0,0,0,-0.0141,-0.0139,-0.0125,-0.0115,-0.0112,-0.0106,-0.0103,-0.0104,-0.0076,-0.0084,-0.0081,-0.008,-0.0053,-0.0051,-0.005,-0.0053,-0.0034,-0.0034,-0.0033,-0.0033,-0.0046,-0.0047,0,0,0,0,0,0,-0.0145,-0.014,-0.0126,-0.0125,-0.0123,-0.0107,-0.0103,-0.01,-0.0076,-0.0072,-0.0081,-0.0078,-0.0052,-0.005,-0.0048,-0.0047,-0.0034,-0.0033,-0.0033,-0.0046,-0.0046,-0.0047,0,0,0,0,0,0,-0.0145,-0.0144,-0.0127,-0.0132,-0.013,-0.0108,-0.0105,-0.01,-0.0097,-0.0074,-0.0069,-0.0082,-0.0051,-0.0049,-0.0048,-0.0046,-0.0033,-0.0033,-0.0045,-0.0046,-0.0046,-0.0061,0,0,0,0,0,0,-0.0146,-0.0144,-0.0149,-0.0133,-0.013,-0.013,-0.0106,-0.0101,-0.0098,-0.0094,-0.0074,-0.0069,-0.005,-0.0048,-0.0047,-0.0046,-0.0033,-0.0044,-0.0045,-0.0046,-0.006,-0.0062,-0.0064,0,0,0,0,0,-0.0146,-0.0157,-0.015,-0.0148,-0.0136,-0.013,-0.0129,-0.0109,-0.0099,-0.0101,-0.0086,-0.007,-0.0053,-0.0049,-0.0048,-0.0046,-0.0044,-0.0045,-0.0046,-0.0059,-0.0061,-0.0064,0,0,0,0,0,0,-0.0169,-0.0153,-0.0145,-0.015,-0.0142,-0.0123,-0.0128,-0.0116,-0.0108,-0.0104,-0.0081,-0.0076,-0.0073,-0.0065,-0.006,-0.0053,-0.0045,-0.0046,-0.0055,-0.0057,-0.0059,-0.0021,-0.0032,0,0,0,0,0,-0.0178,-0.0181,-0.0163,-0.017,-0.0167,-0.015,-0.0149,-0.0134,-0.0122,-0.0117,-0.0104,-0.009,-0.008,-0.0072,-0.0066,-0.0067,-0.0051,-0.0065,-0.0067,-0.0069,-0.0038,-0.0027,-0.0024,-0.005,-0.005,-0.005,0,0,-0.019,-0.0182,-0.0185,-0.0176,-0.0168,-0.0138,-0.0146,-0.0144,-0.0117,-0.0117,-0.0092,-0.0102,-0.0084,-0.0079,-0.0076,-0.0068,-0.006,-0.007,-0.0071,-0.0039,-0.0027,-0.0025,-0.0022,-0.0051,-0.0051,-0.0051,0,0,-0.0202,-0.0208,-0.0204,-0.0185,-0.0172,-0.0154,-0.0154,-0.014,-0.0135,-0.0126,-0.0113,-0.012,-0.011,-0.009,-0.0079,-0.0091,-0.0076,-0.01,-0.0072,-0.0064,-0.0061,-0.0058,-0.0061,-0.0058,-0.0096,-0.0096,-0.0096,0,-0.0216,-0.0181,-0.0205,-0.0178,-0.0132,-0.0154,-0.01,-0.0115,-0.0102,-0.0088,-0.0117,-0.0095,-0.0104,-0.0065,-0.0077,-0.0092,-0.0089,-0.0065,-0.0064,-0.0061,-0.0058,-0.0061,-0.0058,-0.0097,-0.0097,-0.0096,-0.0096,0,-0.0206,-0.016,-0.0156,-0.0108,-0.0085,-0.0048,-0.0042,-0.0045,-0.005,-0.0048,-0.0043,-0.0072,-0.0045,-0.0071,-0.008,-0.0059,-0.0067,-0.0074,-0.0054,-0.0056,-0.0061,-0.0057,-0.0098,-0.0098,-0.0097,-0.0097,0,0,-0.0258,-0.0158,-0.0152,-0.0075,-0.002,0.0005,0.0031,0.0072,0.0086,0.0051,0.0081,0.0055,0.0022,0.0032,0.0003,-0.0007,-0.0019,-0.0034,-0.0033,-0.0029,-0.0006,0.0008,0.0014,-0.0029,-0.0027,-0.0026,-0.0028,0,-0.0218,-0.0112,-0.0078,0.0043,0.0123,0.0143,0.0173,0.0187,0.0169,0.0162,0.0117,0.0112,0.0066,0.0051,0.004,-0.0014,-0.0004,-0.0017,-0.0009,-0.0009,0.0011,0.0021,-0.0023,-0.0025,-0.0024,-0.0024,-0.0023,0,-0.0207,-0.0109,0.0024,0.0183,0.021,0.0251,0.0325,0.035,0.032,0.0294,0.0278,0.0223,0.0193,0.014,0.01,0.009,0.0062,0.002,0.0019,0.0054,0.0015,-0.0017,-0.0016,-0.0017,-0.0017,-0.0018,-0.0018,0,-0.0194,-0.0035,0.0094,0.0149,0.0287,0.0329,0.0381,0.0385,0.0387,0.0366,0.0336,0.0314,0.0253,0.0234,0.0122,0.0118,0.0063,0.0052,0.0059,0.0058,0.0051,0.0048,0.0075,0.0075,0.0075,0.0075,0.0075,0,-0.0137,-0.0037,0.0103,0.0178,0.0273,0.037,0.041,0.0433,0.0445,0.0423,0.0397,0.0348,0.0267,0.0203,0.0155,0.0103,0.01,0.0085,0.0071,0.0039,0.0035,0.0052,0.0049,0.0075,0.0075,0.0075,0.0075,0,-0.0155,-0.005,0.0085,0.0246,0.0276,0.0328,0.0396,0.0388,0.0441,0.0408,0.0397,0.0349,0.0259,0.019,0.0115,0.0124,0.0089,0.0086,0.0045,0.0025,0.0077,0.0073,0.0122,0.0122,0.0123,0.0124,0.0124,0,-0.0142,-0.0068,0.0075,0.0087,0.0147,0.0224,0.0217,0.0328,0.0316,0.0386,0.0339,0.0293,0.0232,0.0124,0.0102,0.0063,0.0062,0.0095,0.0115,0.0106,0.0088,0.0083,0.0078,0.0125,0.0125,0.0125,0.0126,0,-0.0131,-0.0112,-0.0035,-0.0019,-0.001,0.0014,0.0052,0.0055,0.016,0.0247,0.0238,0.0243,0.0149,0.0089,0.0056,0.0038,0.0103,0.0102,0.0101,0.012,0.0111,0.0091,0.0085,0.0128,0.0128,0.0127,0.0127,0,-0.0187,-0.0191,-0.0157,-0.0154,-0.0171,-0.0224,-0.0158,-0.0137,-0.0089,0.0062,0.0057,0.0054,0.0088,0.0078,0.0052,0.003,0.005,0.0099,0.0099,0.0097,0.0099,0.0084,0.0099,0,0,0,0,0,-0.0229,-0.0282,-0.03,-0.0324,-0.0358,-0.0353,-0.031,-0.0234,-0.0087,-0.0119,-0.0006,-0.0072,-0.0038,-0.0016,-0.0051,0.0038,0.0017,0.0012,0.0062,0.0141,0.0138,0.0148,0,0,0,0,0,0,-0.0275,-0.0316,-0.0342,-0.0491,-0.0534,-0.0581,-0.0554,-0.0441,-0.0424,-0.0246,-0.028,-0.0048,-0.0095,-0.0083,-0.0065,-0.0045,0.0003,0.0078,0.008,0.0142,0.014,0.0138,0.0147,0,0,0,0,0]}]]